Location: Sungai Kamana Besar
(2.6333°N, 113.4333°E)
Time: 04:56:53
(UTC+00:00)

CZ-2C R/B - Pass Details

Date: 29 May 2022
Orbit: 704 x 907 km, 98.1° (Epoch: 26 June)

Event Time Altitude Azimuth Distance (km) Brightness Sun altitude
Rises 21:42:18 0° 356° (N) 3,436 6.6 -8.6°
Reaches altitude 10° 21:44:55 10° 347° (NNW) 2,473 5.8 -8.0°
Maximum altitude 21:49:50 34° 283° (WNW) 1,321 3.8 -6.9°
Drops below altitude 10° 21:54:32 10° 219° (SW) 2,360 5.0 -5.8°
Sets 21:57:00 0° 210° (SSW) 3,258 5.8 -5.2°
